Regional Weather Roundup
Issued by NWS Glasgow, MT

Home | Current Version | Previous Version | Text Only | Print | Product List | Glossary On
Versions: 1 2 3 4 5 6 7 8 9 10 11 12 13 14 15 16 17 18 19 20 21 22 23 24 25 26 27
000
ASUS45 KGGW 190615
RWRGGW
HOURLY REGIONAL WEATHER ROUNDUP FOR NORTHEAST MONTANA
NATIONAL WEATHER SERVICE GLASGOW MONTANA
1100 PM MST THU JAN 18 2018

NOTE: "FAIR" INDICATES FEW OR NO CLOUDS BELOW 12,000 FEET WITH NO
SIGNIFICANT WEATHER AND/OR OBSTRUCTIONS TO VISISBILITY.

NORTHEAST MONTANA


CITY           SKY/WX    TMP DP  RH WIND       PRES   REMARKS
GLASGOW        CLOUDY    39  30  70 N6        29.59S
6HR MIN TEMP:  31; 6HR MAX TEMP:  41;

PLENTYWOOD       N/A     42  32  67 W9G17       N/A
WOLF POINT     CLOUDY    33  27  78 SW6       29.59F
JORDAN           N/A     34  30  85 W5        29.61F
WINNETT          N/A     40  32  73 NW2G20      N/A
SIDNEY         CLOUDY    34  29  82 S9        29.58F
GLENDIVE       CLOUDY    31  26  82 S12       29.62F
MALTA            N/A     38  32  79 SW7         N/A
SCOBEY           N/A     40  27  60 MISG      29.56R

FORT PECK REPORTS


CITY           SKY/WX    TMP DP  RH WIND       PRES   REMARKS
FORT PECK        N/A     37  32  82 S10         N/A
THE PINES        N/A     41  30  65 SW9         N/A

SOUTHEAST MONTANA


CITY           SKY/WX    TMP DP  RH WIND       PRES   REMARKS
BILLINGS       CLOUDY    47  29  49 W10       29.61S
MILES CITY     CLOUDY    30  25  81 S8        29.64S
BAKER          PTCLDY    27  24  89 N6        29.64F
LIVINGSTON     LGT RAIN  42  34  73 N23G30    29.62R

CENTRAL MONTANA


CITY           SKY/WX    TMP DP  RH WIND       PRES   REMARKS
HAVRE          CLOUDY    37  32  82 SW21      29.59F
LEWISTOWN      LGT RAIN  36  34  92 NW6       29.67F
GREAT FALLS    LGT RAIN  36  34  92 SW9       29.70R
CUT BANK       CLOUDY    35  24  64 W15G23    29.62S
HELENA         MIX PCPN  35  35 100 W5        29.70F
BUTTE          LGT SNOW  33  31  92 W6        29.71S FOG
BOZEMAN        LGT RAIN  38  31  76 NW13      29.69R

WESTERN MONTANA


CITY           SKY/WX    TMP DP  RH WIND       PRES   REMARKS
MISSOULA       LGT RAIN  33  32  96 CALM      29.76S FOG
KALISPELL      NOT AVBL

NORTH DAKOTA


CITY           SKY/WX    TMP DP  RH WIND       PRES   REMARKS
WILLISTON      MOCLDY    37  25  60 SW7       29.57F
DICKINSON      MOCLDY    37  28  70 W14       29.58F
MINOT          CLOUDY    41  30  65 SW15      29.51F
BISMARCK       MOCLDY    26  23  88 CALM      29.61S

SOUTHERN SASKATCHEWAN


CITY           SKY/WX    TMP DP  RH WIND       PRES   REMARKS
REGINA         PTCLDY    30  27  86 SW6       29.41F
ESTEVAN        CLOUDY    39  30  70 W13       29.48F
SWIFT CURRENT  CLOUDY    37  27  65 W24G31    29.44S





USA.gov is the U.S. government's official web portal to all federal, state and local government web resources and services.